Kaolin Field Information

FAA: OKZ - ICAO: KOKZ

Kaolin Field (Airport) Location

State Georgia
County Washington
City Sandersville
Kaolin Field (Airport) is 2 miles southwest of Sandersville, GA.
Latitude 32-57-58.9480N
Longitude 082-50-14.9570W
Elevation 438ft

Kaolin Field METARs

METAR KOKZ 121415Z AUTO 23006KT 10SM BKN009 BKN013 BKN100 25/23 A3007 RMK AO2 T02510227
Altimeter 30.07"
Temperature 25.1°C (77.2°F)
Wind 230° at 6KT
Clouds broken at 900ft broken at 1,300ft broken at 10,000ft
Visibility 10.0mi
Time observed: 2022-08-12T14:15:00Z

Kaolin Field (Airport) Details

Status Operational
Activation N/A
Ownership Public
Usage Public
Chart ATLANTA
ATC on-site No
Beacon schedule sunset-sunrise
Beacon color clear green

Kaolin Field (Airport) Contacts

Owner WASHINGTON CO
Owner address PO BOX 271, SANDERSVILLE, GA 31082
Owner phone 478-552-9136
Manager N/A
Manager address N/A, N/A
Manager phone N/A

Kaolin Field Radio Frequencies

Kaolin Field (Airport) Radio Frequencies

UNICOM 123
Common traffic advisory frequency (CTAF) 123